Track STARLINK-1195 now! 10-day predictions STARLINK-1195 is classified as:
1 45102U 20006BL 21018.30569410 .00000300 00000-0 39076-4 0 9992 2 45102 53.0596 30.0162 0001628 54.8640 305.2501 15.06393576 54200